World > North America > United States > North Carolina   City of Goldsboro, North Carolina

Hourly Goldsboro, NC Regional Weather

Feedback E-mail the Weather

Latest News

Goldsboro, NC Weather Maps

°F °C°F °C
Goldsboro Weather Map
UTC Time: 5/25/2022, 23:50
Your Time:

Goldsboro, NC Regional Weather

Expires:202205260000;;581114
ASUS42 KMHX 252326
RWRMHX
WEATHER ROUNDUP FOR EASTERN NORTH CAROLINA
NATIONAL WEATHER SERVICE NEWPORT/MOREHEAD CITY NC
700 PM EDT WED MAY 25 2022

NOTE: "FAIR" INDICATES FEW OR NO CLOUDS BELOW 12,000 FEET
WITH NO SIGNIFICANT WEATHER AND/OR OBSTRUCTIONS TO VISIBILITY


NCZ011>013-027>030-043-044-078>080-089-090>093-098-260000-
COASTAL PLAIN
  
CITY           SKY/WX    TMP DP  RH WIND       PRES   REMARKS
AHOSKIE        DRIZZLE   62  62 100 N6        30.25S                  
ROCKY MOUNT    CLOUDY    65  62  90 N9        30.25S                  
GREENVILLE     CLOUDY    64  64 100 NE7       30.24R                  
WASHINGTON     CLOUDY    64  61  90 N7        30.24R                  
GOLDSBORO      CLOUDY    67  59  74 NW8       30.20S                  
KINSTON        CLOUDY    66  63  88 N9        30.23S                  
NEW BERN       LGT RAIN  67  63  87 N10       30.22S                  
HAVELOCK       CLOUDY    68  63  84 N10       30.21S                  
KENANSVILLE    CLOUDY    66  63  88 MISG      30.23R                  
RICHLANDS      CLOUDY    68  62  81 N6        30.22S                  
CLINTON        CLOUDY    69  64  83 NE5       30.24R                  
ELIZABETHTOWN  MOSUNNY   74  62  66 NE9       30.21R                  
WHITEVILLE     CLOUDY    78  64  61 NE6       30.19R                  

$$


SKY/WX - Weather  TMP - Temperature  DP - Dew Point  RH - Humidity
WIND - Wind Direction/Speed PRES - Barometric Pressure VSB - Visibility
WCI - Wind Chill Index E13G22 Wind - East Wind 13 mph/Gusts of 22 mph

Trending Headlines

Goldsboro Radar Loop



Goldsboro Quick Facts


National Two Day Weather Forecast


E-mail the Goldsboro Weather Forecast

Voice your opinion or tell us about page issues...